contact:dominique.lefevre@mio.osupytheas.fr, maurice.libes@osupytheas.fr, didier.mallarino@osupytheas.fr
Project:EMSO http://www.emso-fr.org/EMSO-France
Depth: 2436.0 m
Title:EMSO Ligure Ouest : Data MII capteur AQUADOPP
Date,Latitude,Longitude,X_East,Y_North,Z_Up,Amplitude_X,Amplitude_Y,Amplitude_Z,Batterie,SoundSpeed,Heading,Pitch,Roll,Pressure,TIS,Speed,Direction
, degrees North, degrees East, m.s-1, m.s-1,m.s-1, 1, 1, 1, Volt, m.s-1, degree, degree, degree, dbar, degree_C, m.s-1, degree
2023-09-13T00:04:03,42.805,6.029,-0.02,-0.017,-0.035,102.0,101.0,101.0,13.3,1505.2,328.7,-0.7,1.8,2471.501,13.28,0.026,229.6
2023-09-13T00:07:03,42.805,6.029,-0.02,-0.006,-0.035,102.0,101.0,100.0,13.3,1505.2,332.0,-0.8,1.8,2471.517,13.29,0.02,253.3
2023-09-13T00:10:03,42.805,6.029,0.009,-0.017,-0.04,101.0,100.0,101.0,13.3,1505.2,330.2,-0.7,1.8,2471.511,13.29,0.019,152.1
2023-09-13T00:13:03,42.805,6.029,-0.006,-0.002,-0.036,101.0,101.0,101.0,13.4,1505.2,336.9,-0.8,1.8,2471.497,13.29,0.006,251.6
2023-09-13T00:16:03,42.805,6.029,0.024,-0.009,-0.045,102.0,100.0,100.0,13.4,1505.2,324.0,-0.8,1.8,2471.457,13.29,0.025,110.6
2023-09-13T00:19:03,42.805,6.029,-0.033,0.018,-0.018,102.0,100.0,100.0,13.3,1505.2,341.9,-0.7,1.8,2471.474,13.29,0.037,298.6
2023-09-13T00:22:03,42.805,6.029,-0.034,0.019,-0.039,101.0,102.0,101.0,13.4,1505.2,356.8,-0.8,1.8,2471.48,13.29,0.038,299.2
2023-09-13T00:25:03,42.805,6.029,-0.025,0.016,-0.036,101.0,102.0,100.0,13.4,1505.2,337.9,-0.8,1.8,2471.531,13.29,0.029,302.6
2023-09-13T00:28:03,42.805,6.029,-0.017,0.02,-0.05,101.0,101.0,101.0,13.4,1505.2,344.5,-0.8,1.8,2471.497,13.29,0.026,319.6
2023-09-13T00:31:03,42.805,6.029,-0.03,0.04,-0.006,102.0,101.0,101.0,13.4,1505.2,338.5,-0.7,1.8,2471.448,13.29,0.05,323.1
2023-09-13T00:34:03,42.805,6.029,-0.022,0.003,-0.038,100.0,100.0,101.0,13.3,1505.2,341.5,-0.8,1.9,2471.442,13.29,0.022,277.8
2023-09-13T00:37:03,42.805,6.029,-0.006,0.002,-0.039,101.0,101.0,101.0,13.3,1505.2,354.6,-0.8,1.8,2471.473,13.29,0.006,288.4
2023-09-13T00:40:03,42.805,6.029,-0.015,-0.028,-0.077,102.0,101.0,100.0,13.4,1505.2,354.6,-0.8,1.8,2471.481,13.29,0.031,208.2
2023-09-13T00:43:03,42.805,6.029,-0.014,-0.001,-0.036,102.0,102.0,101.0,13.4,1505.2,328.5,-0.8,1.8,2471.466,13.29,0.014,265.9
2023-09-13T00:46:03,42.805,6.029,-0.013,-0.007,-0.024,100.0,101.0,101.0,13.3,1505.2,328.5,-0.8,1.8,2471.467,13.29,0.014,241.7
2023-09-13T00:49:03,42.805,6.029,-0.025,-0.012,-0.031,101.0,102.0,100.0,13.3,1505.2,328.4,-0.8,1.8,2471.472,13.29,0.027,244.4
2023-09-13T00:52:03,42.805,6.029,-0.031,0.003,-0.042,101.0,101.0,101.0,13.3,1505.2,331.0,-0.8,1.8,2471.42,13.29,0.031,275.5
2023-09-13T00:55:03,42.805,6.029,-0.005,-0.034,-0.07,101.0,100.0,101.0,13.4,1505.2,333.0,-0.8,1.8,2471.452,13.29,0.034,188.4
2023-09-13T00:58:03,42.805,6.029,-0.013,0.019,-0.07,101.0,101.0,101.0,13.4,1505.2,347.3,-0.8,1.8,2471.438,13.29,0.023,325.6
2023-09-13T01:04:03,42.805,6.029,-0.048,0.006,-0.022,102.0,103.0,102.0,13.4,1505.2,327.0,-0.8,1.8,2471.505,13.28,0.048,277.1
2023-09-13T01:07:03,42.805,6.029,-0.006,-0.002,-0.052,102.0,100.0,101.0,13.4,1505.2,352.8,-0.8,1.8,2471.471,13.28,0.006,251.6
2023-09-13T01:10:03,42.805,6.029,0.017,-0.037,-0.041,101.0,101.0,100.0,13.3,1505.2,333.4,-0.8,1.8,2471.501,13.29,0.04,155.3
2023-09-13T01:13:03,42.805,6.029,-0.021,-0.006,-0.039,101.0,102.0,103.0,13.3,1505.2,348.4,-0.8,1.8,2471.476,13.29,0.021,254.1
2023-09-13T01:16:03,42.805,6.029,0.0,0.002,-0.037,102.0,101.0,101.0,13.3,1505.2,339.4,-0.8,1.8,2471.461,13.29,0.002,0.0
2023-09-13T01:19:03,42.805,6.029,-0.035,-0.001,-0.03,102.0,101.0,101.0,13.4,1505.2,349.5,-0.8,1.8,2471.459,13.29,0.035,268.4
2023-09-13T01:22:03,42.805,6.029,-0.04,-0.005,-0.045,101.0,101.0,102.0,13.4,1505.2,352.0,-0.8,1.8,2471.437,13.29,0.04,262.9
2023-09-13T01:25:03,42.805,6.029,-0.027,-0.003,-0.059,100.0,102.0,100.0,13.3,1505.2,354.6,-0.8,1.8,2471.47,13.29,0.027,263.7
2023-09-13T01:28:03,42.805,6.029,-0.019,0.007,-0.026,103.0,99.0,102.0,13.3,1505.2,332.9,-0.8,1.8,2471.475,13.29,0.02,290.2
2023-09-13T01:31:03,42.805,6.029,-0.035,0.0,-0.055,101.0,100.0,102.0,13.4,1505.2,342.2,-0.8,1.8,2471.453,13.29,0.035,270.0
2023-09-13T01:34:03,42.805,6.029,-0.009,-0.002,-0.047,102.0,102.0,101.0,13.4,1505.2,341.9,-0.8,1.8,2471.459,13.29,0.009,257.5
2023-09-13T01:37:03,42.805,6.029,-0.028,0.002,-0.075,101.0,102.0,100.0,13.4,1505.2,335.0,-0.8,1.8,2471.467,13.29,0.028,274.1
2023-09-13T01:40:03,42.805,6.029,-0.008,0.016,-0.011,101.0,100.0,101.0,13.4,1505.2,332.0,-0.8,1.8,2471.484,13.29,0.017,333.4
2023-09-13T01:43:03,42.805,6.029,-0.011,-0.032,-0.07,102.0,100.0,101.0,13.4,1505.2,332.9,-0.8,1.8,2471.479,13.29,0.033,199.0
2023-09-13T01:46:03,42.805,6.029,-0.017,-0.021,-0.062,102.0,102.0,100.0,13.4,1505.2,339.7,-0.8,1.8,2471.498,13.29,0.027,219.0
2023-09-13T01:49:03,42.805,6.029,-0.012,0.0,-0.023,102.0,101.0,101.0,13.3,1505.2,330.2,-0.8,1.8,2471.448,13.29,0.012,270.0
2023-09-13T01:52:03,42.805,6.029,-0.011,-0.03,-0.064,101.0,101.0,102.0,13.3,1505.2,332.1,-0.8,1.8,2471.492,13.29,0.031,200.1
2023-09-13T01:55:03,42.805,6.029,-0.01,0.009,-0.038,103.0,103.0,100.0,13.4,1505.2,347.0,-0.8,1.8,2471.443,13.29,0.013,312.0
2023-09-13T01:58:03,42.805,6.029,-0.03,0.004,-0.045,102.0,102.0,100.0,13.4,1505.2,343.9,-0.8,1.9,2471.458,13.29,0.03,277.6
2023-09-13T02:04:03,42.805,6.029,-0.034,-0.005,-0.046,101.0,100.0,101.0,13.4,1505.2,333.0,-0.8,1.8,2471.528,13.28,0.034,261.6
2023-09-13T02:07:03,42.805,6.029,-0.038,-0.011,-0.047,101.0,102.0,101.0,13.4,1505.2,331.0,-0.8,1.8,2471.492,13.28,0.039,253.9
2023-09-13T02:10:03,42.805,6.029,-0.036,0.002,-0.042,102.0,101.0,101.0,13.4,1505.2,350.5,-0.8,1.8,2471.535,13.29,0.036,273.2
2023-09-13T02:13:03,42.805,6.029,-0.048,-0.008,-0.085,100.0,103.0,100.0,13.4,1505.2,331.0,-0.7,1.8,2471.543,13.29,0.048,260.5
2023-09-13T02:16:03,42.805,6.029,-0.04,-0.02,-0.071,100.0,101.0,101.0,13.3,1505.2,342.2,-0.8,1.8,2471.458,13.29,0.044,243.4
2023-09-13T02:19:03,42.805,6.029,-0.015,0.025,-0.015,102.0,102.0,100.0,13.3,1505.2,353.2,-0.8,1.8,2471.45,13.29,0.029,329.0
2023-09-13T02:22:03,42.805,6.029,-0.002,0.008,-0.013,102.0,100.0,101.0,13.3,1505.2,328.7,-0.7,1.8,2471.456,13.29,0.008,346.0
2023-09-13T02:25:03,42.805,6.029,0.0,0.001,-0.029,101.0,101.0,101.0,13.3,1505.2,347.5,-0.8,1.8,2471.489,13.29,0.001,0.0
2023-09-13T02:28:03,42.805,6.029,-0.048,0.002,-0.075,102.0,101.0,100.0,13.3,1505.2,335.6,-0.7,1.8,2471.447,13.29,0.048,272.4
2023-09-13T02:31:03,42.805,6.029,-0.021,-0.015,-0.045,102.0,102.0,101.0,13.3,1505.2,333.9,-0.8,1.8,2471.471,13.29,0.025,234.5
2023-09-13T02:34:03,42.805,6.029,-0.037,0.011,-0.032,102.0,101.0,101.0,13.4,1505.2,343.4,-0.7,1.8,2471.451,13.29,0.038,286.6
2023-09-13T02:37:03,42.805,6.029,-0.002,0.0,-0.025,102.0,101.0,100.0,13.4,1505.2,343.7,-0.8,1.8,2471.474,13.29,0.002,270.0
2023-09-13T02:40:03,42.805,6.029,-0.024,-0.013,-0.043,102.0,100.0,101.0,13.3,1505.2,337.5,-0.7,1.8,2471.457,13.29,0.027,241.6
2023-09-13T02:43:03,42.805,6.029,-0.011,-0.034,-0.08,100.0,100.0,101.0,13.3,1505.2,342.3,-0.8,1.8,2471.485,13.29,0.035,197.9
2023-09-13T02:46:03,42.805,6.029,-0.02,-0.007,-0.031,103.0,100.0,101.0,13.4,1505.2,333.4,-0.7,1.8,2471.469,13.29,0.021,250.7
2023-09-13T02:49:03,42.805,6.029,0.001,0.003,0.002,101.0,101.0,100.0,13.4,1505.2,341.5,-0.8,1.8,2471.469,13.29,0.003,18.4
2023-09-13T02:52:03,42.805,6.029,-0.033,0.006,-0.029,101.0,102.0,101.0,13.4,1505.2,333.0,-0.8,1.8,2471.44,13.29,0.033,280.3
2023-09-13T02:55:03,42.805,6.029,-0.009,-0.007,-0.031,100.0,101.0,101.0,13.4,1505.2,327.3,-0.8,1.8,2471.491,13.29,0.011,232.1
2023-09-13T02:58:03,42.805,6.029,-0.019,0.02,0.01,102.0,100.0,101.0,13.4,1505.2,353.4,-0.8,1.8,2471.484,13.29,0.027,316.5
2023-09-13T03:04:03,42.805,6.029,-0.023,-0.014,-0.031,101.0,100.0,102.0,13.3,1505.2,330.5,-0.8,1.8,2471.535,13.28,0.026,238.7
2023-09-13T03:07:03,42.805,6.029,-0.036,0.033,-0.001,103.0,101.0,100.0,13.3,1505.2,328.0,-0.8,1.8,2471.531,13.28,0.048,312.5
2023-09-13T03:10:03,42.805,6.029,-0.03,-0.002,-0.032,100.0,101.0,101.0,13.4,1505.2,339.0,-0.8,1.8,2471.511,13.29,0.03,266.2
2023-09-13T03:13:03,42.805,6.029,-0.019,-0.019,-0.042,103.0,100.0,101.0,13.4,1505.2,327.8,-0.8,1.8,2471.545,13.29,0.026,225.0
2023-09-13T03:16:03,42.805,6.029,-0.015,0.005,-0.021,103.0,99.0,101.0,13.4,1505.2,343.4,-0.7,1.8,2471.509,13.29,0.015,288.4
2023-09-13T03:19:03,42.805,6.029,-0.008,-0.022,-0.037,100.0,101.0,101.0,13.4,1505.2,337.6,-0.8,1.8,2471.514,13.29,0.023,200.0
2023-09-13T03:22:03,42.805,6.029,-0.004,-0.033,-0.053,102.0,101.0,101.0,13.4,1505.2,336.1,-0.8,1.8,2471.482,13.29,0.033,186.9
2023-09-13T03:25:03,42.805,6.029,-0.014,0.004,-0.037,101.0,101.0,100.0,13.4,1505.2,338.6,-0.8,1.8,2471.525,13.29,0.014,285.9
2023-09-13T03:28:03,42.805,6.029,-0.017,-0.007,-0.052,102.0,102.0,100.0,13.4,1505.2,353.0,-0.8,1.8,2471.513,13.29,0.018,247.6
2023-09-13T03:31:03,42.805,6.029,-0.027,0.009,0.0,101.0,101.0,100.0,13.4,1505.2,326.3,-0.7,1.8,2471.494,13.29,0.028,288.4
2023-09-13T03:34:03,42.805,6.029,-0.02,-0.026,-0.044,102.0,100.0,101.0,13.4,1505.2,333.4,-0.8,1.8,2471.505,13.29,0.032,217.6
2023-09-13T03:37:03,42.805,6.029,-0.015,0.007,-0.042,101.0,101.0,101.0,13.4,1505.2,325.5,-0.7,1.8,2471.518,13.29,0.016,295.0
2023-09-13T03:40:03,42.805,6.029,-0.033,-0.019,-0.051,102.0,101.0,101.0,13.4,1505.2,332.9,-0.8,1.8,2471.528,13.29,0.038,240.1
2023-09-13T03:43:03,42.805,6.029,-0.017,-0.009,-0.06,101.0,101.0,101.0,13.4,1505.2,347.3,-0.7,1.8,2471.504,13.29,0.019,242.1
2023-09-13T03:46:03,42.805,6.029,-0.033,0.02,-0.048,101.0,101.0,101.0,13.4,1505.2,344.3,-0.8,1.8,2471.495,13.29,0.038,301.2
2023-09-13T03:49:03,42.805,6.029,-0.028,-0.007,-0.048,102.0,101.0,101.0,13.4,1505.2,346.8,-0.8,1.8,2471.494,13.29,0.028,256.0
2023-09-13T03:52:03,42.805,6.029,0.002,-0.04,-0.077,101.0,101.0,102.0,13.4,1505.2,345.7,-0.8,1.8,2471.502,13.29,0.04,177.1
2023-09-13T03:55:03,42.805,6.029,-0.018,0.0,-0.048,100.0,102.0,100.0,13.4,1505.2,344.8,-0.7,1.8,2471.513,13.29,0.018,270.0
2023-09-13T03:58:03,42.805,6.029,-0.031,-0.005,-0.052,101.0,101.0,100.0,13.4,1505.2,340.3,-0.8,1.8,2471.469,13.29,0.031,260.8
2023-09-13T04:04:03,42.805,6.029,0.003,-0.012,-0.055,101.0,101.0,101.0,13.4,1505.2,331.1,-0.8,1.8,2471.537,13.28,0.012,166.0
2023-09-13T04:07:03,42.805,6.029,-0.018,-0.022,-0.036,101.0,102.0,101.0,13.4,1505.2,343.8,-0.8,1.8,2471.494,13.28,0.028,219.3
2023-09-13T04:10:03,42.805,6.029,-0.057,-0.018,-0.106,101.0,101.0,101.0,13.4,1505.2,353.5,-0.8,1.8,2471.543,13.29,0.059,252.5
2023-09-13T04:13:03,42.805,6.029,-0.022,-0.013,-0.028,101.0,101.0,101.0,13.4,1505.2,344.2,-0.8,1.8,2471.541,13.29,0.025,239.4
2023-09-13T04:16:03,42.805,6.029,-0.021,0.017,-0.029,101.0,100.0,101.0,13.4,1505.2,349.1,-0.8,1.8,2471.559,13.29,0.027,309.0
2023-09-13T04:19:03,42.805,6.029,-0.004,-0.009,-0.043,99.0,100.0,101.0,13.4,1505.2,347.3,-0.8,1.8,2471.565,13.29,0.009,204.0
2023-09-13T04:22:03,42.805,6.029,-0.013,0.017,-0.055,101.0,102.0,100.0,13.4,1505.2,354.9,-0.7,1.8,2471.549,13.29,0.021,322.6
2023-09-13T04:25:03,42.805,6.029,-0.01,-0.027,-0.043,101.0,101.0,100.0,13.3,1505.2,326.3,-0.7,1.8,2471.561,13.29,0.028,200.3
2023-09-13T04:28:03,42.805,6.029,0.0,0.024,-0.004,102.0,100.0,101.0,13.4,1505.2,336.9,-0.8,1.8,2471.546,13.29,0.024,0.0
2023-09-13T04:31:03,42.805,6.029,-0.021,-0.024,-0.047,101.0,101.0,101.0,13.3,1505.2,343.7,-0.8,1.7,2471.524,13.29,0.031,221.2
2023-09-13T04:34:03,42.805,6.029,-0.005,-0.019,-0.041,101.0,101.0,101.0,13.4,1505.2,339.8,-0.7,1.8,2471.535,13.29,0.019,194.7
2023-09-13T04:37:03,42.805,6.029,-0.019,0.006,-0.017,102.0,101.0,101.0,13.4,1505.2,354.5,-0.8,1.8,2471.512,13.29,0.019,287.5
2023-09-13T04:40:03,42.805,6.029,-0.017,-0.023,-0.062,102.0,101.0,101.0,13.4,1505.2,350.3,-0.8,1.8,2471.504,13.29,0.028,216.5
2023-09-13T04:43:03,42.805,6.029,-0.017,0.011,-0.036,102.0,101.0,101.0,13.3,1505.2,330.3,-0.8,1.8,2471.56,13.29,0.02,302.9
2023-09-13T04:46:03,42.805,6.029,-0.051,-0.001,-0.072,102.0,102.0,101.0,13.4,1505.2,328.2,-0.8,1.8,2471.553,13.29,0.051,268.9
2023-09-13T04:49:03,42.805,6.029,-0.014,-0.019,-0.053,102.0,101.0,101.0,13.3,1505.2,328.5,-0.8,1.8,2471.543,13.29,0.023,216.4
2023-09-13T04:52:03,42.805,6.029,0.003,-0.007,-0.005,101.0,101.0,101.0,13.3,1505.2,351.7,-0.8,1.8,2471.552,13.29,0.007,156.8
2023-09-13T04:55:03,42.805,6.029,-0.027,-0.012,-0.023,102.0,102.0,100.0,13.4,1505.2,338.5,-0.8,1.8,2471.564,13.29,0.029,246.0
2023-09-13T04:58:03,42.805,6.029,0.001,-0.017,-0.046,100.0,102.0,102.0,13.3,1505.2,333.0,-0.7,1.8,2471.547,13.29,0.017,176.6
2023-09-13T05:04:03,42.805,6.029,-0.004,-0.02,-0.033,101.0,102.0,101.0,13.4,1505.2,345.4,-0.7,1.8,2471.585,13.28,0.02,191.3
2023-09-13T05:07:03,42.805,6.029,-0.009,-0.026,-0.052,101.0,101.0,100.0,13.4,1505.2,332.0,-0.8,1.8,2471.608,13.29,0.027,199.1
2023-09-13T05:10:03,42.805,6.029,-0.009,-0.019,-0.037,101.0,100.0,101.0,13.4,1505.2,337.5,-0.8,1.8,2471.575,13.29,0.021,205.3
2023-09-13T05:13:03,42.805,6.029,-0.017,-0.023,-0.024,102.0,99.0,102.0,13.4,1505.2,352.0,-0.8,1.8,2471.561,13.29,0.028,216.5
2023-09-13T05:16:03,42.805,6.029,0.016,0.0,-0.008,101.0,102.0,100.0,13.4,1505.2,332.9,-0.7,1.8,2471.586,13.29,0.016,90.0
2023-09-13T05:19:03,42.805,6.029,-0.013,-0.005,-0.032,102.0,100.0,102.0,13.3,1505.2,335.2,-0.8,1.8,2471.563,13.29,0.013,249.0
2023-09-13T05:22:03,42.805,6.029,-0.02,-0.002,-0.047,101.0,100.0,101.0,13.3,1505.2,341.2,-0.8,1.8,2471.562,13.29,0.02,264.3
2023-09-13T05:25:03,42.805,6.029,-0.022,-0.033,-0.061,102.0,101.0,101.0,13.4,1505.2,339.0,-0.7,1.8,2471.549,13.29,0.039,213.7
2023-09-13T05:28:03,42.805,6.029,0.007,0.006,-0.011,101.0,101.0,101.0,13.4,1505.2,342.5,-0.8,1.8,2471.551,13.29,0.009,49.4
2023-09-13T05:31:03,42.805,6.029,-0.043,0.004,-0.045,102.0,102.0,101.0,13.4,1505.2,347.9,-0.7,1.8,2471.569,13.29,0.043,275.3
2023-09-13T05:34:03,42.805,6.029,-0.03,0.004,-0.046,102.0,101.0,101.0,13.4,1505.2,344.1,-0.7,1.8,2471.617,13.29,0.03,277.6
2023-09-13T05:37:03,42.805,6.029,-0.002,-0.005,-0.05,101.0,101.0,101.0,13.4,1505.2,326.8,-0.8,1.8,2471.555,13.29,0.005,201.8
2023-09-13T05:40:03,42.805,6.029,-0.043,-0.006,-0.073,101.0,102.0,101.0,13.3,1505.2,343.4,-0.8,1.8,2471.581,13.29,0.043,262.1
2023-09-13T05:43:03,42.805,6.029,-0.025,-0.002,-0.017,101.0,101.0,101.0,13.4,1505.2,325.8,-0.8,1.8,2471.576,13.29,0.025,265.4
2023-09-13T05:46:03,42.805,6.029,-0.03,0.025,-0.022,103.0,100.0,100.0,13.3,1505.2,342.6,-0.7,1.8,2471.59,13.29,0.039,309.8
2023-09-13T05:49:03,42.805,6.029,-0.025,-0.004,-0.058,101.0,101.0,102.0,13.3,1505.2,349.2,-0.8,1.8,2471.588,13.29,0.025,260.9
2023-09-13T05:52:03,42.805,6.029,-0.009,0.013,-0.005,101.0,101.0,101.0,13.4,1505.2,346.5,-0.8,1.8,2471.565,13.29,0.015,325.3
2023-09-13T05:55:03,42.805,6.029,-0.018,0.002,-0.017,101.0,101.0,101.0,13.4,1505.2,353.4,-0.8,1.8,2471.581,13.29,0.018,276.3
2023-09-13T05:58:03,42.805,6.029,-0.012,0.006,-0.027,101.0,101.0,101.0,13.4,1505.2,332.9,-0.8,1.8,2471.582,13.29,0.013,296.6
2023-09-13T06:04:03,42.805,6.029,-0.037,0.009,-0.012,101.0,101.0,101.0,13.4,1505.2,339.5,-0.8,1.8,2471.611,13.28,0.038,283.7
2023-09-13T06:07:03,42.805,6.029,-0.025,-0.006,-0.016,103.0,100.0,101.0,13.4,1505.2,337.4,-0.7,1.8,2471.623,13.29,0.025,256.5
2023-09-13T06:10:03,42.805,6.029,-0.02,-0.007,-0.016,101.0,101.0,101.0,13.4,1505.2,339.7,-0.8,1.8,2471.593,13.29,0.021,250.7
2023-09-13T06:13:03,42.805,6.029,-0.028,-0.03,-0.031,102.0,101.0,101.0,13.4,1505.2,331.9,-0.8,1.8,2471.618,13.29,0.041,223.0
2023-09-13T06:16:03,42.805,6.029,-0.008,0.005,-0.032,101.0,102.0,101.0,13.4,1505.2,347.6,-0.8,1.8,2471.581,13.29,0.009,302.0
2023-09-13T06:19:03,42.805,6.029,-0.025,0.003,-0.041,101.0,102.0,101.0,13.4,1505.2,340.3,-0.8,1.8,2471.552,13.29,0.025,276.8
2023-09-13T06:22:03,42.805,6.029,-0.016,-0.019,-0.041,101.0,101.0,101.0,13.4,1505.2,341.8,-0.7,1.8,2471.57,13.29,0.024,220.1
2023-09-13T06:25:03,42.805,6.029,-0.009,-0.003,-0.055,101.0,101.0,101.0,13.4,1505.2,335.1,-0.8,1.8,2471.545,13.29,0.009,251.6
2023-09-13T06:28:03,42.805,6.029,-0.019,-0.014,-0.035,102.0,101.0,101.0,13.4,1505.2,348.9,-0.8,1.9,2471.597,13.29,0.023,233.6
2023-09-13T06:31:03,42.805,6.029,-0.031,-0.008,-0.053,102.0,102.0,101.0,13.4,1505.2,332.2,-0.8,1.8,2471.584,13.29,0.032,255.5
2023-09-13T06:34:03,42.805,6.029,-0.048,0.014,-0.001,101.0,101.0,102.0,13.4,1505.2,333.4,-0.8,1.8,2471.599,13.29,0.05,286.3
2023-09-13T06:37:03,42.805,6.029,-0.031,-0.004,-0.067,101.0,102.0,101.0,13.3,1505.2,345.6,-0.8,1.8,2471.562,13.29,0.031,262.7
2023-09-13T06:40:03,42.805,6.029,-0.044,0.007,-0.041,102.0,101.0,102.0,13.4,1505.2,337.6,-0.7,1.8,2471.532,13.29,0.044,279.0
2023-09-13T06:43:03,42.805,6.029,-0.019,0.0,-0.041,101.0,102.0,101.0,13.4,1505.2,340.4,-0.8,1.9,2471.597,13.29,0.019,270.0
2023-09-13T06:46:03,42.805,6.029,0.0,-0.016,-0.055,101.0,101.0,104.0,13.4,1505.2,333.0,-0.7,1.8,2471.568,13.29,0.016,180.0
2023-09-13T06:49:03,42.805,6.029,-0.047,0.022,-0.024,102.0,102.0,100.0,13.3,1505.2,333.4,-0.8,1.8,2471.544,13.29,0.051,295.1
2023-09-13T06:52:03,42.805,6.029,-0.021,0.004,-0.058,101.0,102.0,101.0,13.4,1505.2,345.6,-0.8,1.8,2471.574,13.29,0.021,280.8
2023-09-13T06:55:03,42.805,6.029,-0.032,-0.004,-0.031,102.0,101.0,101.0,13.3,1505.2,329.7,-0.8,1.8,2471.561,13.29,0.032,262.9
2023-09-13T06:58:03,42.805,6.029,-0.039,0.026,-0.017,103.0,102.0,101.0,13.4,1505.2,331.0,-0.8,1.8,2471.554,13.29,0.046,303.7
2023-09-13T07:04:03,42.805,6.029,-0.003,-0.011,-0.011,102.0,101.0,101.0,13.4,1505.2,332.4,-0.8,1.8,2471.648,13.28,0.011,195.3
2023-09-13T07:07:03,42.805,6.029,-0.028,0.047,-0.008,102.0,101.0,101.0,13.4,1505.2,351.7,-0.7,1.8,2471.584,13.29,0.054,329.2
2023-09-13T07:10:03,42.805,6.029,-0.03,0.001,-0.07,101.0,101.0,101.0,13.3,1505.2,347.0,-0.8,1.8,2471.574,13.29,0.03,271.9
2023-09-13T07:13:03,42.805,6.029,-0.012,0.007,-0.021,101.0,102.0,100.0,13.4,1505.2,344.0,-0.7,1.8,2471.568,13.29,0.013,300.3
2023-09-13T07:16:03,42.805,6.029,-0.014,0.005,-0.05,102.0,101.0,101.0,13.4,1505.2,323.1,-0.8,1.8,2471.575,13.29,0.014,289.6
2023-09-13T07:19:03,42.805,6.029,-0.031,0.015,-0.051,101.0,101.0,101.0,13.4,1505.2,345.7,-0.8,1.8,2471.563,13.29,0.034,295.8
2023-09-13T07:22:03,42.805,6.029,-0.025,0.016,-0.043,103.0,100.0,101.0,13.4,1505.2,347.3,-0.8,1.8,2471.598,13.29,0.029,302.6
2023-09-13T07:25:03,42.805,6.029,-0.015,0.0,-0.022,101.0,101.0,103.0,13.3,1505.2,327.4,-0.8,1.8,2471.599,13.29,0.015,270.0
2023-09-13T07:28:03,42.805,6.029,-0.018,-0.01,-0.019,101.0,101.0,102.0,13.4,1505.2,331.5,-0.8,1.8,2471.544,13.29,0.02,240.9
2023-09-13T07:31:03,42.805,6.029,-0.032,-0.006,-0.02,102.0,101.0,101.0,13.4,1505.2,331.0,-0.8,1.8,2471.568,13.29,0.032,259.4
2023-09-13T07:34:03,42.805,6.029,-0.022,0.008,-0.021,102.0,102.0,100.0,13.4,1505.2,347.5,-0.8,1.8,2471.59,13.29,0.023,290.0
2023-09-13T07:37:03,42.805,6.029,-0.009,-0.014,-0.015,102.0,102.0,101.0,13.3,1505.2,332.1,-0.8,1.8,2471.553,13.29,0.016,212.7
2023-09-13T07:40:03,42.805,6.029,-0.023,0.031,-0.012,103.0,100.0,101.0,13.4,1505.2,349.5,-0.8,1.8,2471.532,13.29,0.038,323.4
2023-09-13T07:43:03,42.805,6.029,-0.027,-0.02,-0.07,101.0,101.0,101.0,13.3,1505.2,344.8,-0.7,1.8,2471.554,13.29,0.033,233.5
2023-09-13T07:46:03,42.805,6.029,-0.028,0.005,-0.027,100.0,103.0,100.0,13.4,1505.2,355.6,-0.7,1.8,2471.571,13.29,0.028,280.1
2023-09-13T07:49:03,42.805,6.029,0.004,-0.009,-0.044,101.0,103.0,101.0,13.3,1505.2,334.2,-0.8,1.8,2471.586,13.29,0.009,156.0
2023-09-13T07:52:03,42.805,6.029,-0.043,-0.015,-0.057,102.0,101.0,101.0,13.4,1505.2,328.6,-0.8,1.8,2471.551,13.29,0.045,250.8
2023-09-13T07:55:03,42.805,6.029,-0.024,0.0,-0.022,101.0,102.0,101.0,13.4,1505.2,336.5,-0.8,1.8,2471.508,13.29,0.024,270.0
2023-09-13T07:58:03,42.805,6.029,-0.028,0.027,-0.043,102.0,102.0,101.0,13.4,1505.2,355.6,-0.7,1.8,2471.544,13.29,0.038,314.0
2023-09-13T08:04:03,42.805,6.029,-0.017,-0.003,-0.015,102.0,101.0,101.0,13.4,1505.2,340.1,-0.8,1.8,2471.592,13.28,0.017,260.0
2023-09-13T08:07:03,42.805,6.029,-0.028,-0.001,-0.04,102.0,105.0,101.0,13.3,1505.2,352.8,-0.8,1.8,2471.584,13.28,0.028,268.0
2023-09-13T08:10:03,42.805,6.029,-0.007,-0.01,-0.018,103.0,102.0,101.0,13.4,1505.2,334.9,-0.8,1.8,2471.547,13.29,0.012,215.0
2023-09-13T08:13:03,42.805,6.029,-0.026,0.015,-0.024,103.0,102.0,101.0,13.4,1505.2,350.7,-0.7,1.8,2471.576,13.29,0.03,300.0
2023-09-13T08:16:03,42.805,6.029,-0.037,0.005,0.004,102.0,103.0,100.0,13.3,1505.2,324.5,-0.7,1.8,2471.541,13.29,0.037,277.7
2023-09-13T08:19:03,42.805,6.029,-0.001,-0.008,-0.031,101.0,101.0,102.0,13.4,1505.2,334.8,-0.8,1.9,2471.525,13.29,0.008,187.1
2023-09-13T08:22:03,42.805,6.029,-0.007,0.018,-0.018,103.0,102.0,100.0,13.4,1505.2,339.0,-0.8,1.8,2471.547,13.29,0.019,338.8
2023-09-13T08:25:03,42.805,6.029,-0.019,-0.02,-0.031,103.0,102.0,101.0,13.3,1505.2,334.9,-0.8,1.8,2471.54,13.29,0.027,223.5
2023-09-13T08:28:03,42.805,6.029,-0.031,0.009,-0.024,101.0,102.0,102.0,13.3,1505.2,333.4,-0.8,1.8,2471.51,13.29,0.032,286.2
2023-09-13T08:31:03,42.805,6.029,-0.019,-0.002,-0.049,103.0,102.0,101.0,13.3,1505.2,347.5,-0.7,1.8,2471.511,13.29,0.019,264.0
2023-09-13T08:34:03,42.805,6.029,-0.029,0.011,-0.04,101.0,101.0,101.0,13.4,1505.2,345.4,-0.8,1.8,2471.535,13.29,0.031,290.8
2023-09-13T08:37:03,42.805,6.029,-0.018,0.009,-0.043,102.0,101.0,101.0,13.4,1505.2,353.0,-0.8,1.8,2471.523,13.29,0.02,296.6
2023-09-13T08:40:03,42.805,6.029,0.0,-0.026,-0.043,103.0,101.0,101.0,13.4,1505.2,338.4,-0.8,1.8,2471.5,13.29,0.026,180.0
2023-09-13T08:43:03,42.805,6.029,-0.018,0.009,-0.013,102.0,102.0,102.0,13.3,1505.2,347.0,-0.8,1.8,2471.527,13.29,0.02,296.6
2023-09-13T08:46:03,42.805,6.029,-0.015,-0.01,-0.056,102.0,103.0,101.0,13.4,1505.2,355.6,-0.8,1.8,2471.537,13.29,0.018,236.3
2023-09-13T08:49:03,42.805,6.029,-0.018,0.007,-0.052,103.0,102.0,101.0,13.4,1505.2,329.3,-0.8,1.8,2471.538,13.29,0.019,291.2
2023-09-13T08:52:03,42.805,6.029,-0.047,-0.009,-0.062,103.0,102.0,101.0,13.4,1505.2,340.2,-0.7,1.8,2471.498,13.29,0.047,259.2
2023-09-13T08:55:03,42.805,6.029,-0.029,0.003,-0.019,104.0,102.0,102.0,13.3,1505.2,341.5,-0.8,1.8,2471.501,13.29,0.029,275.9
2023-09-13T08:58:03,42.805,6.029,-0.047,-0.004,-0.025,103.0,102.0,101.0,13.4,1505.2,336.9,-0.8,1.8,2471.548,13.29,0.047,265.1
2023-09-13T09:04:03,42.805,6.029,-0.024,0.011,-0.014,103.0,102.0,102.0,13.3,1505.2,325.0,-0.8,1.8,2471.578,13.28,0.026,294.6
2023-09-13T09:07:03,42.805,6.029,-0.007,-0.008,-0.021,102.0,102.0,102.0,13.4,1505.2,330.7,-0.7,1.8,2471.55,13.29,0.01,221.2
2023-09-13T09:10:03,42.805,6.029,-0.036,-0.006,-0.055,103.0,101.0,102.0,13.4,1505.2,330.8,-0.8,1.8,2471.571,13.29,0.036,260.5
2023-09-13T09:13:04,42.805,6.029,-0.031,-0.001,-0.038,104.0,101.0,101.0,13.4,1505.2,354.5,-0.7,1.8,2471.516,13.29,0.031,268.2
2023-09-13T09:16:03,42.805,6.029,-0.043,0.006,-0.025,101.0,102.0,102.0,13.4,1505.2,327.4,-0.7,1.8,2471.538,13.29,0.043,277.9
2023-09-13T09:19:03,42.805,6.029,-0.019,-0.006,-0.049,102.0,103.0,101.0,13.3,1505.2,344.0,-0.8,1.8,2471.472,13.29,0.019,252.5
2023-09-13T09:22:03,42.805,6.029,-0.024,0.0,-0.045,102.0,102.0,102.0,13.4,1505.2,338.3,-0.8,1.8,2471.522,13.29,0.024,270.0
2023-09-13T09:25:03,42.805,6.029,-0.003,-0.006,-0.053,102.0,102.0,101.0,13.4,1505.2,351.5,-0.8,1.8,2471.556,13.29,0.006,206.6
2023-09-13T09:28:03,42.805,6.029,0.008,-0.006,-0.013,103.0,102.0,101.0,13.4,1505.2,333.0,-0.8,1.8,2471.494,13.29,0.01,126.9
2023-09-13T09:31:03,42.805,6.029,-0.011,-0.022,-0.03,106.0,102.0,102.0,13.4,1505.2,342.6,-0.8,1.8,2471.491,13.29,0.024,206.6
2023-09-13T09:34:03,42.805,6.029,-0.019,0.004,-0.013,102.0,102.0,102.0,13.4,1505.2,332.9,-0.8,1.9,2471.456,13.29,0.019,281.9
2023-09-13T09:37:03,42.805,6.029,-0.006,0.005,-0.009,103.0,103.0,102.0,13.4,1505.2,353.2,-0.7,1.8,2471.461,13.29,0.007,309.8
2023-09-13T09:40:03,42.805,6.029,-0.019,0.011,-0.002,104.0,103.0,101.0,13.4,1505.2,326.5,-0.8,1.8,2471.48,13.29,0.021,300.1
2023-09-13T09:43:03,42.805,6.029,-0.022,0.0,-0.033,103.0,102.0,101.0,13.4,1505.2,336.1,-0.8,1.8,2471.498,13.29,0.022,270.0
2023-09-13T09:52:03,42.805,6.029,-0.026,0.004,-0.031,103.0,103.0,101.0,13.4,1505.2,329.5,-0.8,1.8,2471.556,13.28,0.026,278.7
2023-09-13T09:55:03,42.805,6.029,-0.011,0.0,-0.026,103.0,102.0,102.0,13.3,1505.2,343.7,-0.8,1.8,2471.527,13.29,0.011,270.0
2023-09-13T09:58:03,42.805,6.029,-0.025,0.003,-0.033,103.0,102.0,101.0,13.4,1505.2,355.8,-0.8,1.8,2471.519,13.29,0.025,276.8